User: anonymous   Login
Location: Unspecified
(0.0000°N, 0.0000°E)
Time: 20:29:05
(UTC+02:00)
Language:

JASON 2 - Orbit

View from above orbital plane
View from above orbital plane
View from above satellite
View from above satellite

Ground track
Ground track

The orbit data is extracted from the following two-line orbital elements,

1 33105U 08032A   20226.94182779 -.00000045 +00000-0 +69580-4 0  9996
2 33105 066.0374 216.3423 0008167 270.6422 114.5412 12.87627458569071
Epoch (UTC): 13 August 2020 22:36:13
Eccentricity: 0.0008167
inclination: 66.0374°
perigee height: 1304 km
apogee height: 1317 km
right ascension of ascending node: 216.3423°
argument of perigee: 270.6422°
revolutions per day: 12.87627458
mean anomaly at epoch: 114.5412°
orbit number at epoch: 56907

The dashed part of the orbit path shows where the satellite is in the earth's shadow,  

DLR